Location: Cadeilhan
(42.8161°N, 0.3161°E)
Time: 15:01:02
(UTC+00:00)

Cosmos 2369 Rocket - Pass Details

Date: 18 February 2020
Orbit: 827 x 854 km, 71.0° (Epoch: 28 March)

Event Time Altitude Azimuth Distance (km) Brightness Sun altitude
Rises 06:18:16 0° 324° (NW) 3,431 4.9 -7.0°
Reaches altitude 10° 06:21:06 10° 312° (NW) 2,491 4.1 -6.5°
Maximum altitude 06:25:41 26° 258° (WSW) 1,640 3.2 -5.6°
Drops below altitude 10° 06:30:16 10° 204° (SSW) 2,474 4.5 -4.8°
Sets 06:33:05 0° 192° (SSW) 3,403 5.4 -4.3°
